Wetbulb
63.24 62.50 63.13 61.49 62.26 61.39 61.26 57.94 55.87 52.97 53.25 56.60 58.51 61.72 62.47 61.64 63.62 65.70 62.21 65.53 66.58 66.12 65.46 64.93 65.31 65.99 66.62 67.05 67.15 67.26 67.02 66.66 66.56 66.34 66.34 65.48 64.87 65.07
65.15 64.06 62.92 62.02 61.97 61.60 61.32 59.75 58.29 55.57 53.20 57.54 59.53 60.22 61.47 63.03 64.52 63.85 62.72 65.44 65.69 65.98 65.37 64.94 65.04 65.17 65.77 66.01 66.23 66.22 66.19 66.31 66.16 65.95 65.85 65.90 65.92 65.27
65.53 64.47 63.81 62.87 62.06 60.71 62.47 60.70 60.16 60.45 58.71 58.78 58.96 58.78 61.52 60.24 61.38 63.07 62.83 61.98 62.67 64.94 65.13 64.96 64.30 64.30 64.83 65.02 65.04 65.20 65.53 65.56 65.34 65.56 65.75 65.98 65.91 65.89
63.79 64.49 63.64 65.16 63.83 62.52 62.14 61.65 61.24 60.67 59.64 57.64 58.85 59.71 59.85 60.63 60.65 61.04 62.24 64.29 63.21 64.85 64.29 63.88 63.46 63.17 62.82 62.70 62.65 62.78 62.87 63.37 63.72 63.72 64.47 64.96 65.28 65.39
64.96 63.92 63.48 62.39 62.26 62.11 63.04 62.61 62.96 63.56 61.93 60.59 58.33 59.50 59.59 59.79 59.62 59.18 60.16 60.45 62.53 65.50 63.83 62.87 62.27 61.78 61.28 60.43 59.91 59.39 58.93 59.37 59.78 60.32 61.02 61.76 62.80 63.59
64.82 65.05 64.28 63.51 62.98 63.67 63.83 64.49 63.59 63.00 61.92 61.08 60.56 60.72 60.07 59.99 60.48 58.11 57.22 57.73 58.48 61.77 62.87 62.05 61.91 61.70 60.77 59.36 59.94 60.32 58.39 56.90 56.37 56.43 56.85 57.59 58.79 60.10
64.53 64.92 64.98 65.53 66.05 63.96 64.87 64.07 64.09 62.59 61.61 60.86 60.18 60.35 59.51 57.62 58.26 58.98 57.21 57.45 58.49 58.05 57.26 56.70 56.48 55.29 56.09 57.58 59.12 60.95 59.64 58.42 57.19 56.46 55.92 55.38 55.58 56.39
64.18 64.08 64.80 66.61 66.38 65.26 64.80 64.54 63.66 62.16 61.12 60.30 60.04 59.11 58.82 58.40 58.09 57.84 56.62 55.34 54.27 58.10 56.22 55.30 54.56 53.64 54.70 54.89 58.65 59.47 58.94 58.33 57.72 57.20 56.21 55.13 54.99 55.31
65.43 63.96 64.67 66.82 66.02 65.16 63.33 63.28 63.23 63.06 63.14 61.95 59.90 59.25 57.17 57.43 57.58 56.82 56.02 55.20 54.60 57.41 54.16 51.63 53.31 52.74 55.38 56.91 59.08 59.20 58.60 57.83 57.34 56.78 56.15 55.50 54.91 54.56
65.90 65.80 64.82 65.43 63.93 64.33 63.53 62.03 62.70 63.35 63.14 63.02 61.90 61.18 59.49 59.03 58.75 58.71 57.39 55.60 54.38 55.05 53.85 50.98 53.12 52.85 54.60 55.02 58.51 59.23 57.53 56.26 56.14 55.48 55.29 54.34 53.17 51.87
66.29 66.65 66.54 63.89 61.15 60.95 61.99 60.97 61.59 61.78 62.26 60.34 60.52 59.93 59.16 59.12 59.78 57.34 56.10 52.59 51.36 51.52 52.49 51.76 52.00 51.63 50.82 50.71 51.11 55.91 55.74 54.76 54.55 54.96 55.05 54.48 52.56 51.55
64.66 64.73 61.02 61.10 58.19 57.53 60.63 59.91 58.61 59.39 60.19 59.68 58.26 57.98 58.28 57.87 58.72 58.07 55.54 53.36 51.51 50.43 53.30 51.72 50.50 48.87 46.45 46.66 48.14 50.13 51.90 54.02 53.34 53.42 53.69 53.20 51.76 54.00
62.55 61.96 62.95 57.81 55.13 54.59 56.32 61.15 60.11 58.67 59.16 57.21 54.98 54.78 54.62 53.56 54.19 55.13 55.76 54.64 51.43 50.48 54.24 51.79 47.92 46.48 45.19 46.36 49.97 52.49 53.52 54.38 54.22 54.43 52.90 51.45 50.68 51.43
60.18 61.89 62.93 56.38 54.05 53.40 54.56 56.34 56.06 57.02 55.57 54.16 52.32 51.57 51.70 52.59 52.59 51.87 51.94 53.97 56.14 53.61 54.18 50.99 48.70 47.82 46.60 46.64 48.01 50.84 51.49 52.26 52.75 53.54 53.47 52.65 51.53 51.23
63.49 60.87 56.58 52.83 50.66 54.00 54.93 56.38 54.37 54.66 53.53 50.76 49.94 50.72 52.04 52.04 50.93 48.78 48.95 48.12 47.40 46.87 49.71 47.08 49.22 47.67 48.83 49.76 50.59 48.87 49.40 50.10 51.75 51.69 52.52 52.11 51.82 51.78
58.70 56.32 55.56 55.22 54.15 54.74 54.80 53.92 53.65 52.42 51.31 50.35 50.43 52.26 51.83 48.53 46.96 47.21 45.70 44.68 42.52 43.17 46.20 47.25 47.75 48.67 49.76 50.26 48.85 50.37 50.85 47.93 50.89 51.69 51.80 51.72 52.06 51.07
56.60 55.50 54.62 54.32 53.38 53.10 52.90 52.52 51.47 51.00 51.30 52.13 52.43 52.25 50.29 46.48 46.35 45.24 44.07 42.34 40.85 41.11 42.91 44.51 46.31 47.11 50.61 50.83 50.25 50.21 49.40 49.70 50.95 51.15 50.65 48.66 49.04 49.55
56.54 55.62 54.07 53.09 52.94 52.82 52.34 51.98 52.28 53.23 51.82 52.12 52.21 50.11 46.57 45.75 44.65 43.40 42.53 41.08 40.17 41.30 41.02 41.78 42.13 46.13 47.70 48.60 52.76 48.54 48.16 49.47 50.93 51.21 48.88 46.52 46.55 47.67
55.98 55.46 55.48 54.43 54.50 54.21 53.75 53.01 53.14 53.96 53.07 52.04 47.78 46.74 44.90 42.96 42.70 42.63 41.08 40.58 40.90 39.96 40.40 40.08 42.24 44.69 43.11 42.46 46.41 51.33 48.10 49.52 49.47 46.96 46.70 46.84 45.65 45.27
54.15 54.90 54.26 53.75 53.08 52.05 51.24 49.45 49.85 49.15 46.24 43.89 43.09 42.54 41.86 42.32 42.43 40.84 39.97 39.32 39.86 39.32 39.67 40.75 41.21 41.10 43.79 43.48 44.08 46.98 49.10 47.50 46.20 44.77 45.61 46.37 45.95 47.79
51.69 51.72 51.41 49.66 49.02 48.43 47.96 47.39 46.63 45.72 44.71 43.41 41.67 41.66 42.36 41.57 40.29 39.72 39.98 42.81 42.06 38.95 39.04 39.99 40.24 47.34 47.07 45.27 42.27 42.65 44.99 47.96 47.06 45.63 46.21 43.58 41.84 42.29
51.79 50.09 48.98 48.53 48.54 48.34 47.30 46.31 45.19 44.38 43.40 42.87 42.63 42.23 41.17 40.48 39.27 39.87 40.29 38.99 39.67 39.47 39.33 40.98 40.10 45.94 44.26 41.98 40.51 41.18 43.00 44.58 46.90 48.29 48.45 46.59 41.75 38.78
49.67 49.45 48.49 48.21 47.98 47.65 45.67 44.60 43.39 42.48 40.57 40.96 41.02 40.10 39.50 39.42 39.90 39.45 39.31 40.21 39.78 39.11 38.70 38.77 39.29 44.72 42.37 41.02 41.78 40.83 40.95 42.15 43.05 43.19 43.70 46.99 46.00 45.01
MSLP
1018.28 1018.53 1018.69 1018.61 1018.69 1018.67 1018.73 1019.02 1019.52 1020.39 1020.25 1019.42 1019.16 1018.53 1018.43 1018.58 1018.66 1018.84 1019.03 1018.88 1018.92 1018.95 1018.95 1018.99 1018.94 1018.91 1018.90 1018.89 1018.90 1018.95 1018.98 1018.93 1018.89 1018.86 1018.85 1018.82 1018.89 1018.92
1017.72 1018.10 1018.37 1018.54 1018.71 1018.64 1018.52 1018.61 1019.02 1019.60 1019.98 1019.49 1019.14 1018.79 1018.46 1018.38 1018.37 1018.47 1018.53 1018.44 1018.55 1018.60 1018.57 1018.56 1018.53 1018.43 1018.39 1018.37 1018.33 1018.30 1018.29 1018.22 1018.25 1018.29 1018.39 1018.35 1018.33 1018.42
1017.36 1017.67 1017.97 1018.15 1018.48 1018.75 1018.88 1019.10 1019.28 1019.35 1019.79 1019.56 1019.16 1018.77 1018.69 1018.73 1018.41 1018.37 1018.31 1018.39 1018.35 1018.17 1018.09 1018.08 1018.04 1018.03 1018.06 1017.94 1017.75 1017.60 1017.55 1017.51 1017.51 1017.58 1017.65 1017.69 1017.80 1017.80
1016.93 1017.38 1017.62 1017.69 1017.91 1018.26 1018.61 1018.83 1019.11 1018.85 1019.04 1019.68 1019.41 1019.12 1018.99 1018.71 1018.36 1018.28 1018.02 1017.89 1017.92 1017.71 1017.60 1017.51 1017.52 1017.48 1017.51 1017.42 1017.25 1017.19 1017.00 1016.89 1017.00 1017.08 1017.15 1017.20 1017.10 1017.05
1016.58 1017.08 1017.25 1017.58 1017.86 1017.94 1018.14 1018.52 1018.57 1019.03 1019.00 1019.36 1019.55 1019.20 1018.92 1018.47 1018.39 1018.43 1018.25 1017.98 1017.69 1017.53 1017.43 1017.26 1017.15 1017.17 1017.19 1017.15 1016.98 1016.78 1016.68 1016.60 1016.59 1016.48 1016.47 1016.58 1016.50 1016.56
1015.93 1016.35 1016.74 1017.17 1017.41 1017.55 1017.82 1018.01 1018.43 1019.01 1019.31 1019.29 1019.60 1019.36 1019.05 1018.61 1018.55 1018.62 1018.51 1018.22 1017.86 1017.36 1017.01 1016.99 1017.05 1016.99 1016.87 1016.67 1016.50 1016.24 1016.14 1016.04 1015.93 1015.97 1016.05 1015.99 1015.91 1015.80
1015.26 1015.68 1016.11 1016.35 1016.61 1016.98 1017.18 1017.66 1017.88 1018.45 1018.87 1019.10 1019.33 1019.32 1018.78 1018.67 1018.67 1018.43 1018.51 1018.24 1017.83 1017.49 1017.29 1017.20 1017.08 1016.89 1016.34 1016.07 1015.87 1015.59 1015.72 1015.55 1015.46 1015.33 1015.40 1015.24 1015.09 1015.03
1015.00 1015.31 1015.61 1015.90 1016.12 1016.38 1016.45 1016.65 1017.10 1017.86 1018.24 1018.58 1019.01 1019.07 1018.67 1018.33 1018.26 1018.38 1018.39 1018.36 1018.11 1016.97 1017.33 1017.31 1017.07 1017.02 1016.54 1016.13 1015.91 1015.72 1015.43 1015.21 1015.02 1014.70 1014.41 1014.39 1014.30 1014.26
1014.29 1014.82 1015.24 1015.44 1015.65 1015.98 1016.29 1016.53 1016.78 1017.05 1017.29 1017.71 1017.95 1018.04 1018.09 1017.87 1017.70 1017.70 1017.64 1017.66 1017.60 1016.86 1016.93 1016.98 1016.58 1016.50 1015.82 1015.51 1015.27 1015.07 1014.73 1014.42 1014.07 1013.90 1013.71 1013.64 1013.55 1013.43
1013.77 1014.11 1014.59 1014.88 1015.17 1015.61 1016.08 1016.39 1016.59 1016.63 1016.50 1016.58 1016.76 1016.76 1016.99 1017.02 1017.17 1016.98 1016.96 1017.12 1017.04 1016.68 1016.91 1017.04 1016.18 1016.13 1015.29 1014.93 1014.53 1014.18 1013.92 1013.57 1013.29 1013.14 1013.00 1012.88 1012.74 1012.68
1013.16 1013.58 1013.95 1014.33 1014.85 1015.34 1015.94 1016.40 1016.40 1016.27 1016.07 1016.16 1016.26 1016.26 1016.36 1016.38 1016.42 1016.73 1016.71 1017.13 1017.19 1016.61 1016.25 1016.50 1016.04 1015.59 1015.03 1014.51 1013.91 1013.53 1013.31 1013.07 1012.78 1012.48 1012.24 1012.03 1011.82 1011.57
1012.88 1013.09 1013.40 1013.78 1014.35 1014.89 1015.73 1015.97 1016.09 1015.82 1016.04 1016.12 1016.02 1015.97 1015.86 1015.72 1015.71 1016.13 1016.22 1016.56 1016.70 1016.59 1015.62 1016.08 1015.62 1015.51 1015.12 1014.09 1013.58 1013.15 1012.89 1012.39 1012.06 1011.69 1011.43 1011.20 1010.98 1010.91
1012.50 1012.97 1013.20 1013.42 1013.87 1014.28 1014.75 1015.03 1015.25 1015.35 1015.57 1015.81 1016.19 1016.11 1015.81 1015.75 1015.50 1015.37 1015.55 1015.85 1016.02 1016.01 1015.08 1015.42 1015.33 1015.19 1015.09 1014.49 1013.56 1012.71 1012.21 1011.70 1011.41 1011.03 1010.66 1010.45 1010.22 1010.14
1012.28 1012.61 1012.83 1013.16 1013.45 1013.83 1014.25 1014.46 1014.71 1015.24 1015.65 1015.78 1015.98 1015.98 1015.85 1015.57 1015.23 1015.23 1015.07 1015.07 1015.10 1015.15 1014.51 1014.73 1015.03 1014.76 1014.62 1014.13 1013.31 1012.09 1011.52 1011.08 1010.77 1010.36 1009.95 1009.48 1009.07 1008.71
1011.79 1012.27 1012.71 1013.05 1013.31 1013.65 1013.99 1014.52 1014.80 1015.28 1015.57 1015.82 1016.01 1016.05 1015.80 1015.56 1015.31 1015.10 1014.94 1014.90 1014.84 1014.52 1014.06 1013.97 1014.13 1013.80 1013.73 1013.33 1012.65 1011.85 1011.26 1010.60 1010.24 1009.87 1009.41 1008.81 1008.09 1007.45
1011.52 1012.19 1012.73 1013.15 1013.26 1013.56 1013.79 1014.25 1014.70 1014.89 1015.24 1015.22 1015.40 1015.47 1015.46 1015.44 1015.32 1015.23 1015.26 1015.07 1015.19 1014.58 1013.51 1013.07 1013.09 1013.20 1012.93 1012.34 1012.06 1011.52 1010.96 1010.70 1009.63 1009.31 1008.46 1007.68 1007.04 1006.45
1011.82 1012.56 1012.93 1013.07 1013.55 1013.75 1013.78 1014.03 1014.39 1014.74 1015.02 1015.23 1015.32 1015.27 1015.45 1015.45 1015.34 1015.10 1015.19 1015.25 1015.34 1014.93 1014.14 1013.02 1012.43 1012.27 1011.99 1011.83 1011.60 1010.90 1010.39 1009.86 1009.17 1008.47 1007.86 1006.60 1005.85 1005.26
1011.74 1012.38 1012.68 1012.98 1013.27 1013.48 1013.58 1013.78 1014.13 1014.37 1014.55 1014.83 1014.95 1015.10 1015.26 1015.40 1015.37 1015.18 1015.16 1015.27 1015.30 1014.75 1014.24 1013.52 1012.86 1012.32 1011.79 1010.91 1010.49 1010.25 1009.85 1009.31 1008.49 1007.93 1007.50 1006.44 1004.60 1004.14
1011.39 1011.78 1012.34 1012.72 1012.95 1013.23 1013.39 1013.50 1013.43 1013.47 1013.70 1014.25 1014.86 1015.03 1015.15 1015.23 1015.27 1015.18 1015.09 1015.03 1014.82 1014.48 1013.90 1013.41 1012.92 1012.71 1012.33 1011.68 1010.64 1009.67 1009.65 1008.95 1008.32 1007.71 1007.02 1006.03 1004.64 1003.44
1011.47 1011.56 1011.95 1012.36 1012.71 1012.97 1013.02 1013.16 1013.28 1013.48 1013.81 1014.17 1014.64 1014.80 1014.91 1015.12 1015.12 1015.04 1014.93 1014.99 1014.76 1014.34 1013.88 1013.07 1012.75 1012.41 1012.18 1011.65 1011.30 1010.08 1009.32 1009.13 1008.44 1007.34 1005.95 1005.00 1004.19 1002.77
1011.19 1011.30 1011.62 1012.09 1012.44 1012.73 1012.93 1013.12 1013.24 1013.63 1013.81 1014.12 1014.41 1014.65 1014.80 1014.97 1014.90 1014.86 1014.76 1014.52 1014.51 1014.26 1013.87 1013.14 1012.16 1011.62 1011.45 1011.38 1011.30 1010.59 1009.27 1008.66 1008.29 1007.40 1005.95 1004.74 1003.36 1001.66
1010.80 1011.19 1011.77 1012.04 1012.08 1012.51 1012.89 1013.19 1013.59 1013.63 1013.93 1014.14 1014.28 1014.41 1014.45 1014.62 1014.70 1014.62 1014.53 1014.53 1014.25 1013.94 1013.44 1012.49 1011.80 1011.53 1011.59 1011.63 1011.46 1010.87 1009.85 1008.60 1007.68 1007.08 1006.29 1005.74 1004.34 1002.52
1010.33 1010.90 1011.32 1011.72 1012.03 1012.43 1012.73 1013.03 1013.27 1013.27 1013.61 1013.66 1013.89 1014.10 1014.35 1014.49 1014.34 1014.37 1014.37 1014.17 1013.86 1013.44 1013.05 1012.46 1012.01 1011.73 1011.66 1011.59 1011.46 1010.92 1010.18 1009.14 1007.96 1006.64 1005.69 1004.89 1004.13 1003.16
Wind_Speed
4 3 3 3 2 2 3 3 5 2 3 3 2 2 2 4 6 6 6 10 13 12 12 13 13 13 14 13 13 12 13 13 13 13 12 12 13 13
4 5 4 1 2 2 2 3 3 4 2 4 3 2 2 2 6 6 7 11 10 12 12 13 14 14 14 14 14 15 15 15 15 15 14 14 13 14
5 6 7 4 4 3 1 2 0 2 2 3 2 2 2 3 4 3 5 5 5 11 12 13 13 14 13 14 15 16 17 17 16 15 15 15 14 14
7 6 7 3 5 4 3 3 3 3 4 3 1 2 4 5 4 4 3 4 4 6 9 8 8 8 10 13 13 14 15 14 14 14 15 13 16 17
7 7 7 6 4 3 4 4 4 1 2 2 3 1 2 2 3 3 3 3 3 6 9 9 5 4 7 7 8 8 10 12 13 14 15 16 16 17
7 8 7 7 7 6 4 4 2 1 1 2 2 3 2 3 1 2 3 1 3 3 4 5 5 4 7 7 8 9 10 11 11 12 13 15 16 16
8 7 7 8 11 8 5 5 4 3 2 1 2 5 5 3 4 2 2 2 3 3 2 3 3 4 7 8 9 12 12 12 12 13 13 13 13 13
8 6 6 8 10 11 10 11 9 6 4 3 3 9 9 5 3 4 3 2 3 3 3 3 3 4 5 4 12 14 13 12 13 13 14 12 12 13
8 7 6 5 8 6 7 10 10 11 8 6 10 8 7 6 3 3 4 3 4 5 3 3 2 4 5 6 12 13 14 14 12 10 10 12 14 14
11 9 8 7 7 8 6 7 8 9 11 9 9 12 8 7 6 4 3 3 2 4 4 4 2 4 4 5 12 13 13 14 13 14 14 14 14 15
7 6 7 7 7 7 6 7 6 7 6 10 10 11 10 10 7 2 4 2 3 4 3 3 4 4 3 4 6 13 14 15 15 16 16 16 15 16
5 6 9 8 11 8 7 6 6 7 5 5 3 4 5 5 5 6 3 4 3 2 4 4 2 2 4 4 4 5 5 13 15 17 16 16 16 9
5 4 4 10 10 10 12 7 7 5 5 3 3 4 4 4 4 3 5 4 3 5 5 3 3 2 3 4 4 4 5 7 6 7 11 14 15 13
5 4 4 9 10 11 7 8 7 4 2 2 2 3 3 4 3 3 3 3 4 7 7 3 4 4 3 3 5 3 4 5 5 7 6 9 15 18
4 5 6 4 5 3 5 6 7 4 4 2 3 3 3 3 4 3 3 4 5 5 5 4 5 5 4 5 6 4 4 4 5 6 7 9 11 11
6 5 5 4 3 1 3 3 4 4 4 4 4 3 1 1 1 1 1 2 2 5 8 7 5 4 4 5 3 8 8 4 5 7 10 11 12 12
7 3 2 2 2 2 2 3 3 4 4 3 3 2 2 1 2 1 1 2 1 3 5 6 7 6 6 7 6 8 7 7 8 10 11 14 14 12
4 4 4 4 4 4 4 4 3 6 4 4 3 1 2 2 2 2 1 1 3 4 4 4 4 4 4 5 11 6 4 7 9 11 11 14 15 13
3 3 3 4 4 4 4 5 4 4 5 3 2 3 2 2 1 2 2 2 3 3 5 3 3 1 3 4 5 5 5 9 9 10 12 11 13 15
2 3 4 4 4 4 4 3 3 4 3 4 3 2 1 1 1 2 2 2 3 4 4 4 3 4 4 3 3 5 9 7 9 12 13 11 13 22
3 3 3 4 4 4 4 4 4 4 3 3 2 2 2 2 1 2 4 5 4 2 5 5 5 8 2 2 4 5 5 10 10 11 15 11 14 12
3 5 5 5 5 5 5 5 4 4 3 3 3 3 2 2 1 3 3 3 4 3 4 5 5 1 2 1 4 5 6 8 12 17 15 17 12 11
5 6 5 5 5 5 5 5 4 4 2 1 3 3 2 0 2 2 3 4 4 4 3 4 4 2 1 1 3 4 6 10 10 12 11 21 24 24
Wind_Direction
216 189 216 204 216 177 169 147 152 193 273 302 306 306 221 191 211 200 214 228 231 231 228 234 241 241 244 240 241 244 244 246 249 252 254 261 272 276
199 197 223 214 213 212 179 171 157 155 199 199 247 267 270 201 216 202 220 227 239 240 239 238 243 247 249 252 246 245 241 239 238 240 245 249 252 262
206 197 229 192 209 229 257 29 263 131 179 297 255 269 262 248 277 258 248 249 263 255 245 245 247 254 259 256 254 249 247 243 243 241 242 244 244 248
208 196 221 220 214 212 194 205 219 197 143 245 289 292 232 248 245 275 261 237 247 275 279 262 264 278 271 265 267 264 260 255 252 249 251 249 246 245
189 201 212 205 227 199 188 213 196 240 161 168 282 290 276 324 345 302 292 304 296 272 273 283 311 325 321 312 291 272 256 256 258 256 255 255 259 264
188 199 202 201 209 212 213 233 145 323 2 62 298 269 242 290 262 261 306 294 291 299 317 298 346 324 301 286 282 275 266 265 263 248 252 254 256 259
195 199 202 205 208 194 193 183 172 190 155 102 329 291 281 260 225 229 244 267 289 249 277 303 320 313 305 310 300 288 270 268 264 262 261 257 249 250
200 201 213 216 220 218 172 171 166 169 178 137 256 263 272 244 198 211 218 220 287 236 173 264 172 275 276 279 268 271 276 259 256 252 250 244 239 237
194 188 207 215 206 176 167 158 174 186 176 186 235 240 259 230 211 236 231 205 226 268 122 272 224 263 260 265 264 269 271 275 282 271 256 247 249 256
199 196 201 203 183 163 179 174 191 201 211 217 225 249 235 253 208 219 241 239 288 280 145 243 265 249 259 256 262 264 277 280 276 279 274 273 271 254
194 194 199 194 193 180 177 208 227 242 256 235 235 243 248 257 241 170 249 182 278 263 233 189 247 247 237 258 261 261 261 269 271 272 274 275 274 275
185 199 200 192 177 186 207 202 226 240 202 259 244 260 254 265 265 207 199 219 226 305 256 184 269 244 297 247 245 255 255 266 267 274 274 273 275 283
198 204 211 208 214 202 202 194 221 169 206 188 277 289 295 289 285 266 204 186 204 235 250 149 246 263 216 281 268 255 239 266 262 268 259 258 260 253
191 203 204 207 221 223 201 222 216 202 169 205 267 279 287 298 305 291 286 253 226 229 271 183 237 211 226 264 256 268 262 260 252 259 269 272 268 267
171 206 183 208 235 246 234 235 167 184 182 177 235 255 235 263 301 326 302 258 262 261 253 236 207 254 215 243 268 262 299 271 261 269 274 282 285 289
132 115 133 131 110 114 98 156 188 188 188 204 217 237 292 294 296 222 268 307 330 299 305 286 267 221 271 251 240 285 290 275 278 279 286 288 290 286
122 104 124 147 171 200 204 200 205 197 209 211 229 218 245 231 266 235 260 304 250 283 294 302 307 256 244 244 281 279 284 289 289 295 302 301 296 295
120 165 188 192 207 213 215 219 205 214 220 204 219 206 216 236 263 303 232 227 269 287 287 282 301 331 331 299 219 269 287 295 305 306 306 301 299 306
147 169 184 190 217 224 218 203 209 194 162 173 160 184 189 240 256 282 303 270 302 290 285 259 286 244 285 277 285 287 294 310 309 306 306 301 300 305
173 172 178 199 208 190 159 150 128 113 120 133 154 192 186 226 281 298 309 292 293 294 294 301 274 260 209 232 273 275 307 306 314 311 310 309 298 294
182 165 171 165 145 132 126 121 128 148 155 154 178 187 207 183 266 269 290 295 278 271 294 279 262 273 233 353 335 302 294 303 316 313 318 319 321 317
172 147 147 142 139 143 146 145 148 153 167 193 211 196 171 163 234 290 315 310 302 271 257 271 312 334 55 92 289 283 300 317 324 321 325 344 332 322
144 147 153 156 157 154 150 150 164 148 154 181 151 148 175 133 354 309 303 298 288 313 293 303 332 329 310 300 292 288 306 327 326 332 340 349 346 341